map of KTAN home
KTAN - Airport
Location
City:  Taunton, Massachusetts, United States
Name:Taunton Municipal - King Field
ICAO:KTAN
FAA LID:TAN

Details
Type:Airport (Airfield)
Use:Public/Civil
Latitude:4152'28"N (41.874467)
Longitude:7100'59"W (-71.016316)
Datum:WGS 1984
Elevation:41 ft (12 m)
Variation:14.39W (WMM2015v2 magnetic declination)
0.08 annual change
Runways:2
Longest:3500 × 75 ft (1067 × 23 m), paved

Time
Time Zone:UTC-5 (DST-4)
Local Time:

Weather
METAR:KTAN 041352Z AUTO 21005KT 9SM CLR 07/02 A3007 RMK AO2 SLP183 T00670022

Related Locations
Nearby:
Farthest:YAUG: 11814 mi / 19013 km
Augusta [Augusta Airport], WA, AU

Find:

   beyond  
but within

Other Information
Maps:
NOTAMs:
Links:
Sources:

  
  • flag of United States
  • flag of Massachusetts
  

Sectional Chart

Flight Planning
at skyvector.com

Satellite Image

Google Maps Satellite view

 

Copyright © 2004-2019 Karl L. Swartz. All rights reserved.
The Great Circle Mapper name and logo are trademarks of the Great Circle Mapper.
All other trademarks mentioned herein belong to their respective owners.
Please see credits for attibutions and further copyright information.

  Follow gcmap on Facebook Follow gcmap on Twitter GCmap on LinkedIn

hCard Microformat

Geo Microformat